DELTA 1 DEB, 21551

Orbit data source: Space-Track

DELTA 1 DEB, 21551 is space debris in SSO originally from a launch on Thu, 12 Jun 1975 UTC launched from the Air Force Western Test Range (AFWTR). Debris objects in space refer to the collection of defunct objects orbiting the Earth. Examples of debris include non-operational satellites, rocket bodies, and fragments generated from explosions, collisions, or faulty payload assembly.

Loading next visibility...
Identifier
21551, 1975-052HF
Orbit
SSO
Country
Flag of USUS
Related business
Manufacturer
Unknown
Mission
Spacecraft
Bus & Motor
Unknown
Mass
Unknown
Launch date (UTC)
1975-06-12 (51 years ago)
Launch vehicle
Unknown
Launch site
Air Force Western Test Range (AFWTR)
Object type
Payload
Rocket body
Debris
Shape & HBR
Unknown shape, 0.1 m
Radar Cross Section
Small (<0.1 m²)

Expand to show TLE details & history
Last TLE update: 6 hours ago

TLE from 6 hours ago
0 DELTA 1 DEB
1 21551U 75052HF  26127.19736191  .00000138  00000-0  40140-3 0  9992
2 21551  99.7875  24.3390 0106957  49.4832 101.7951 13.24613444689199
Epoch: 2026-05-07T04:44Z
TLE epoch observation values (Epoch: 2026-05-07T04:44:12.069Z)
Latitude
27.12944°
Longitude
-86.71317°
Altitude
1,187.646 km
Speed
7.254 km/s
True Right ascension
13h 57m 32s
True Declination
26° 59' 53"
Sunlit
Object was in full shadow at epoch
Visualization orbit readout
Latitude
Unknown
Longitude
Unknown
Altitude
Unknown
Speed
Unknown
Apparent Right ascension
Unknown
Apparent Declination
Unknown
Sunlit
N/A
Visualization observer readout
Local Sidereal Time
18:15:19
Azimuth
Unknown
Elevation
Unknown
Doppler factor
Unknown
Orbital elements
Apogee altitude
1,245.163 km
Perigee altitude
1,083.815 km
Semi-major axis
7,542.626 km
Eccentricity
0.0107
Inclination
99.7875°
RAAN
24.339°
Arg. of periapsis
49.4832°
True anomaly
102.9915°
Mean anomaly
101.7951°
Eccentric anomaly
102.39364°
Mean motion
3.31329 °/min
Orbital period
108.65 mins
BSTAR
0.0004014
Loading maneuver chart data...
Computing Atmospheric mass density...
Loading historical data...
Loading historical data...
Loading historical data...
Loading historical data...
Loading historical data...
Loading historical data...
Loading historical data...

Documentation

Showing up to 5 results
|